TimeCEST,TemperatureF,Dew PointF,Humidity,Sea Level PressureIn,VisibilityMPH,Wind Direction,Wind SpeedMPH,Gust SpeedMPH,PrecipitationIn,Events,Conditions,WindDirDegrees,DateUTC
12:25 AM,51.8,50.0,94,29.74,6.2,SSW,4.6,-,N/A,,Overcast,210,2012-10-03 22:25:00
12:55 AM,51.8,50.0,94,29.74,6.2,SSW,4.6,-,N/A,,Overcast,210,2012-10-03 22:55:00
1:25 AM,51.8,50.0,94,29.74,6.2,SSW,4.6,-,N/A,,Mostly Cloudy,200,2012-10-03 23:25:00
1:55 AM,51.8,50.0,94,29.71,6.2,SSW,4.6,-,N/A,,Overcast,200,2012-10-03 23:55:00
2:25 AM,51.8,50.0,94,29.71,6.2,SSW,4.6,-,N/A,,Drizzle,200,2012-10-04 00:25:00
2:55 AM,51.8,50.0,94,29.71,6.2,SSW,6.9,-,N/A,Rain,Light Rain Showers,210,2012-10-04 00:55:00
3:25 AM,51.8,50.0,94,29.71,6.2,SSW,5.8,-,N/A,Rain,Light Rain,210,2012-10-04 01:25:00
3:55 AM,51.8,51.8,100,29.68,6.2,SW,6.9,-,N/A,Rain,Light Rain,220,2012-10-04 01:55:00
4:25 AM,51.8,51.8,100,29.68,6.2,SSW,5.8,-,N/A,Rain,Light Rain Showers,200,2012-10-04 02:25:00
4:55 AM,51.8,51.8,100,29.68,6.2,SSW,5.8,-,N/A,Rain,Light Rain,200,2012-10-04 02:55:00
5:25 AM,51.8,51.8,100,29.65,6.2,South,3.5,-,N/A,,Drizzle,190,2012-10-04 03:25:00
5:55 AM,51.8,51.8,100,29.65,6.2,SSW,3.5,-,N/A,Rain,Light Rain,200,2012-10-04 03:55:00
6:06 AM,51.8,51.8,100,29.65,4.3,SSW,3.5,-,N/A,Rain,Light Rain,210,2012-10-04 04:06:00
6:10 AM,51.8,51.8,100,29.65,5.0,SSW,3.5,-,N/A,Rain,Light Rain,210,2012-10-04 04:10:00
6:19 AM,51.8,50.0,94,29.65,5.0,SW,3.5,-,N/A,Rain,Light Rain,220,2012-10-04 04:19:00
6:25 AM,51.8,50.0,94,29.65,5.0,SW,4.6,-,N/A,Rain,Light Rain,220,2012-10-04 04:25:00
6:32 AM,51.8,51.8,100,29.65,5.0,SW,4.6,-,N/A,Rain,Light Rain,220,2012-10-04 04:32:00
6:46 AM,51.8,51.8,100,29.65,4.3,SW,4.6,-,N/A,Rain,Rain,220,2012-10-04 04:46:00
6:55 AM,51.8,51.8,100,29.65,4.3,SW,4.6,-,N/A,Rain,Light Rain,230,2012-10-04 04:55:00
7:13 AM,51.8,50.0,94,29.65,5.0,WSW,5.8,-,N/A,Rain,Rain,250,2012-10-04 05:13:00
7:14 AM,51.8,50.0,94,29.65,4.3,WSW,6.9,-,N/A,Rain,Rain Showers,250,2012-10-04 05:14:00
7:25 AM,51.8,50.0,94,29.65,4.3,WSW,5.8,-,N/A,Rain,Rain,250,2012-10-04 05:25:00
7:40 AM,50.0,50.0,100,29.65,3.7,WSW,5.8,-,N/A,Rain,Rain,250,2012-10-04 05:40:00
7:49 AM,50.0,50.0,100,29.65,3.7,West,5.8,-,N/A,Rain,Rain Showers,260,2012-10-04 05:49:00
7:55 AM,50.0,50.0,100,29.65,5.0,West,6.9,-,N/A,Rain,Rain,260,2012-10-04 05:55:00
8:08 AM,50.0,48.2,94,29.65,6.2,WSW,5.8,-,N/A,Rain,Rain Showers,250,2012-10-04 06:08:00
8:25 AM,50.0,48.2,94,29.65,6.2,SW,4.6,-,N/A,Rain,Light Rain,230,2012-10-04 06:25:00
8:50 AM,50.0,48.2,94,29.65,6.2,WSW,8.1,-,N/A,Rain,Light Rain,240,2012-10-04 06:50:00
8:55 AM,50.0,48.2,94,29.68,6.2,WSW,6.9,-,N/A,Rain,Light Rain,240,2012-10-04 06:55:00
9:05 AM,50.0,48.2,94,29.65,6.2,SW,3.5,-,N/A,Rain,Light Rain Showers,230,2012-10-04 07:05:00
9:25 AM,50.0,48.2,94,29.65,6.2,WSW,2.3,-,N/A,Rain,Light Rain,240,2012-10-04 07:25:00
9:55 AM,50.0,50.0,100,29.68,6.2,SW,5.8,-,N/A,,Light Drizzle,230,2012-10-04 07:55:00
10:25 AM,50.0,50.0,100,29.68,6.2,WSW,8.1,-,N/A,,Mostly Cloudy,250,2012-10-04 08:25:00
10:55 AM,50.0,50.0,100,29.71,6.2,WSW,6.9,-,N/A,Rain,Light Rain Showers,250,2012-10-04 08:55:00
11:25 AM,51.8,50.0,94,29.71,6.2,SW,9.2,-,N/A,Rain,Light Rain,230,2012-10-04 09:25:00
11:34 AM,51.8,50.0,94,29.71,6.2,WSW,11.5,-,N/A,,Overcast,240,2012-10-04 09:34:00
11:55 AM,51.8,48.2,88,29.71,6.2,WSW,12.7,-,N/A,Rain,Light Rain,240,2012-10-04 09:55:00
12:25 PM,55.4,50.0,82,29.74,6.2,WSW,12.7,-,N/A,,Partly Cloudy,240,2012-10-04 10:25:00
12:26 PM,55.4,50.0,82,29.74,6.2,WSW,12.7,-,N/A,,Partly Cloudy,240,2012-10-04 10:26:00
12:36 PM,55.4,51.8,88,29.74,6.2,SW,10.4,-,N/A,,Scattered Clouds,230,2012-10-04 10:36:00
12:38 PM,55.4,51.8,88,29.74,6.2,SW,12.7,-,N/A,,Mostly Cloudy,230,2012-10-04 10:38:00
12:42 PM,55.4,50.0,82,29.74,6.2,WSW,13.8,-,N/A,,Mostly Cloudy,240,2012-10-04 10:42:00
12:46 PM,55.4,50.0,82,29.74,6.2,WSW,13.8,-,N/A,,Scattered Clouds,240,2012-10-04 10:46:00
12:48 PM,55.4,50.0,82,29.74,6.2,WSW,13.8,-,N/A,,Scattered Clouds,240,2012-10-04 10:48:00
12:55 PM,57.2,50.0,77,29.74,6.2,WSW,12.7,-,N/A,,Scattered Clouds,240,2012-10-04 10:55:00
1:17 PM,57.2,48.2,72,29.77,6.2,West,12.7,-,N/A,,Mostly Cloudy,260,2012-10-04 11:17:00
1:25 PM,55.4,44.6,67,29.77,6.2,West,15.0,-,N/A,,Mostly Cloudy,260,2012-10-04 11:25:00
1:55 PM,59.0,48.2,67,29.77,6.2,West,17.3,-,N/A,,Scattered Clouds,260,2012-10-04 11:55:00
2:25 PM,59.0,46.4,63,29.80,6.2,West,13.8,-,N/A,,Mostly Cloudy,280,2012-10-04 12:25:00
2:55 PM,55.4,44.6,67,29.80,6.2,West,16.1,-,N/A,,Scattered Clouds,280,2012-10-04 12:55:00
3:25 PM,59.0,44.6,59,29.83,6.2,West,20.7,-,N/A,,Mostly Cloudy,260,2012-10-04 13:25:00
3:30 PM,59.0,46.4,63,29.83,6.2,West,18.4,-,N/A,,Scattered Clouds,260,2012-10-04 13:30:00
3:55 PM,59.0,44.6,59,29.83,6.2,West,20.7,-,N/A,,Mostly Cloudy,260,2012-10-04 13:55:00
4:25 PM,57.2,44.6,63,29.86,6.2,West,19.6,-,N/A,,Partly Cloudy,260,2012-10-04 14:25:00
4:34 PM,57.2,44.6,63,29.86,6.2,West,17.3,-,N/A,,Partly Cloudy,260,2012-10-04 14:34:00
4:55 PM,57.2,44.6,63,29.86,6.2,West,19.6,-,N/A,,Unknown,260,2012-10-04 14:55:00
5:25 PM,57.2,46.4,67,29.86,6.2,West,13.8,-,N/A,,Partly Cloudy,270,2012-10-04 15:25:00
5:55 PM,57.2,44.6,63,29.89,6.2,West,13.8,-,N/A,,Scattered Clouds,260,2012-10-04 15:55:00
6:25 PM,55.4,44.6,67,29.89,6.2,WSW,9.2,-,N/A,,Scattered Clouds,250,2012-10-04 16:25:00
6:55 PM,53.6,44.6,72,29.89,6.2,WSW,8.1,-,N/A,,Partly Cloudy,250,2012-10-04 16:55:00
7:25 PM,53.6,46.4,77,29.89,6.2,SW,5.8,-,N/A,,Partly Cloudy,230,2012-10-04 17:25:00
7:55 PM,53.6,46.4,77,29.92,6.2,SSW,4.6,-,N/A,,Overcast,200,2012-10-04 17:55:00
8:25 PM,53.6,44.6,72,29.92,6.2,SSW,5.8,-,N/A,,Mostly Cloudy,210,2012-10-04 18:25:00
8:55 PM,53.6,44.6,72,29.92,6.2,SSW,5.8,-,N/A,,Overcast,210,2012-10-04 18:55:00
9:25 PM,53.6,44.6,72,29.92,6.2,SSW,6.9,-,N/A,,Mostly Cloudy,210,2012-10-04 19:25:00
9:55 PM,53.6,44.6,72,29.92,6.2,SW,9.2,-,N/A,,Overcast,220,2012-10-04 19:55:00
10:25 PM,53.6,44.6,72,29.92,6.2,SW,10.4,-,N/A,,Mostly Cloudy,220,2012-10-04 20:25:00
10:55 PM,53.6,44.6,72,29.92,6.2,SSW,10.4,-,N/A,,Overcast,210,2012-10-04 20:55:00
11:25 PM,53.6,44.6,72,29.92,6.2,SW,9.2,-,N/A,,Overcast,220,2012-10-04 21:25:00
11:55 PM,53.6,46.4,77,29.89,6.2,SSW,5.8,-,N/A,,Overcast,200,2012-10-04 21:55:00